THOR AGENA D R/B, 1245

Orbit data source: Space-Track

THOR AGENA D R/B, 1245 is space debris in LEO originally from a launch on Tue, 09 Mar 1965 UTC launched from the Air Force Western Test Range (AFWTR). Debris objects in space refer to the collection of defunct objects orbiting the Earth. Examples of debris include non-operational satellites, rocket bodies, and fragments generated from explosions, collisions, or faulty payload assembly.

Loading next visibility...
Identifier
1245, 1965-016J
Orbit
LEO
Last TLE update
1 day ago
Origin
Manufacturer
LMSC
Mission
Spacecraft
Bus & Motor
AGENA D, Unknown motor
Mass
600 kg wet, 600 kg dry
Launch date (UTC)
1965-03-09 (60 years ago)
Launch vehicle
Unknown
Launch site
Air Force Western Test Range (AFWTR)
Object type
Payload
Rocket body
Debris
Shape & HBR
Cyl + 1 Nozzle, 6.3 m
Radar Cross Section
8.306 m², Large (>1 m²)

Expand to show TLE details & history

TLE from 1 day ago
0 THOR AGENA D R/B
1 01245U 65016J   25124.77707365  .00000163  00000-0  15239-3 0  9999
2 01245  70.0779 257.1858 0023281 231.2154 128.6874 13.97561269 63233
Epoch: 2025-05-04T18:38Z
Definitive object data (Epoch: 2025-05-04T18:38:59.163Z)
Latitude
Longitude
114.53917°
Altitude
915.192 km
Speed
7.389 km/s
True Right ascension
17h 08m 44s
True Declination
0° 00' 00"
Sunlit
Object was in full shadow at TLE epoch
Visualization TLE readout
Latitude
-58.80846°
Longitude
-31.91882°
Altitude
908.068 km
Speed
7.406 km/s
Apparent Right ascension
03h 15m 37s
Apparent Declination
-62° 23' 48"
Sunlit
Object is in daylight
Visualization observer readout
Local Sidereal Time
12:24:05
Azimuth
214.322° SW
Elevation
-56°
Doppler factor
1
Orbital elements
Apogee altitude
917.231 km
Perigee altitude
883.341 km
Semi-major axis
7,278.423 km
Eccentricity
0.0023281
Inclination
70.0779°
RAAN
257.1858°
Arg. of periapsis
231.2154°
True anomaly
128.89526°
Mean anomaly
128.6874°
Eccentric anomaly
128.79137°
Mean motion
3.49532 °/min
BSTAR
0.00015239
Orbital period
102.99 mins
Loading maneuver chart data...
Loading SW <> Apogee altitude chart data...
Loading historical data...
Loading historical data...
Loading historical data...
Loading historical data...
Loading historical data...
Loading historical data...
Loading historical data...

THOR AGENA D R/B Visibility forecast

Observer location: undefined°, undefined°

Span
Click to sort rows by Start time (UTC) header in descending order
Start Az.
Max El. time (UTC)
Max El. Az.
Max El.
End time (UTC)
End Az.
6 mins2025-05-06 08:34:24.843Z130.641° SE2025-05-06 08:37:24.843Z98.021° ESE16.034°2025-05-06 08:40:24.843Z66.085° ENE
10 mins2025-05-06 10:17:24.843Z213.859° SW2025-05-06 10:22:24.843Z317.148° NNW43.109°2025-05-06 10:27:24.843Z19.143° NNE
10 mins2025-05-06 19:19:24.843Z344.563° N2025-05-06 19:23:24.843Z48.137° ENE42.305°2025-05-06 19:29:24.843Z145.778° SSE
5 mins2025-05-06 21:06:24.843Z285.029° WNW2025-05-06 21:08:24.843Z261.584° W16.738°2025-05-06 21:11:24.843Z227.766° WSW
|